Location: Saratoga Springs
(43.0831°N, 73.7850°W)
Time: 22:26:54
(UTC-04:00)

Vanguard 1 Rocket - Pass Details

Date: 13 April 2024
Orbit: 651 x 4220 km, 34.3° (Epoch: 20 May)

Event Time Altitude Azimuth Distance (km) Brightness Sun altitude
Rises 00:06:48 0° 265° (W) 4,441 11.0 -36.5°
Reaches altitude 10° 00:09:14 10° 261° (W) 3,778 10.6 -36.6°
Enters shadow 00:15:01 41° 236° (WSW) 2,731 9.5 -36.9°
Maximum altitude 00:19:23 56° 186° (S) 2,749 - -37.0°
Exits shadow 00:34:21 18° 119° (ESE) 5,787 11.1 -37.5°
Drops below altitude 10° 00:38:49 10° 116° (ESE) 6,812 11.5 -37.6°
Sets 00:45:06 0° 113° (ESE) 8,179 12.0 -37.6°
